Location: Haulchin
(50.3172°N, 3.4360°E)
Time: 06:36:47
(UTC+00:00)

Cosmos 2333 Rocket - Pass Details

Date: 13 August 2024
Orbit: 839 x 863 km, 70.8° (Epoch: 16 September)

Event Time Altitude Azimuth Distance (km) Brightness Sun altitude
Exits shadow 22:51:08 22° 94° (E) 1,803 3.7 -24.1°
Drops below altitude 10° 22:54:57 10° 53° (NE) 2,509 4.9 -24.2°
Sets 22:57:56 0° 39° (NE) 3,453 5.9 -24.4°
